�N����,����,�~����,�C��,���x,�C��,����,���ϕ���,�ő�u�ԕ���,�ő厞����,���˗�,�I�_���x,�n�����x,�ő啗���N��,DTYPE
"22/12/01","16:10",1.0,60.0,100.0,1017.3,292.9,1.3,2.9,268.7,0.00,60.0,130.0,"16:09:16",1
"22/12/01","16:20",0.0,9.1,71.3,1017.3,313.9,3.1,4.8,341.1,0.00,4.2,12.6,"16:17:28",1
"22/12/01","16:30",0.0,9.0,71.2,1017.1,310.5,2.8,6.4,339.4,0.00,4.1,12.8,"16:20:40",1
"22/12/01","16:40",0.0,8.9,72.2,1016.8,307.8,2.5,4.5,322.8,0.00,4.2,12.7,"16:32:16",1
"22/12/01","16:50",0.0,8.7,73.0,1016.6,293.7,2.5,4.1,296.1,0.00,4.2,12.8,"16:47:36",1
"22/12/01","17:00",0.0,8.6,73.3,1016.6,321.3,2.7,3.9,327.3,0.00,4.1,12.7,"16:54:32",1
"22/12/01","17:10",0.0,8.4,73.7,1017.1,308.3,2.2,3.7,338.9,0.00,4.0,12.6,"17:09:20",1
"22/12/01","17:20",0.0,8.4,74.1,1016.6,307.7,2.6,6.0,345.0,0.00,4.1,12.7,"17:19:36",1
"22/12/01","17:30",0.0,8.2,74.4,1017.1,306.2,2.5,4.4,269.7,0.00,4.0,12.6,"17:24:00",1
"22/12/01","17:40",0.0,7.9,75.0,1017.3,310.0,2.5,4.3,319.9,0.00,3.8,12.6,"17:38:32",1
"22/12/01","17:50",0.0,7.8,75.2,1017.3,309.0,3.2,6.2,306.0,0.00,3.7,12.6,"17:48:40",1
"22/12/01","18:00",0.0,7.9,75.0,1017.5,314.7,3.2,5.1,328.1,0.00,3.8,12.6,"17:50:24",1
"22/12/01","18:10",0.0,7.8,75.0,1017.8,306.0,3.0,4.8,325.7,0.00,3.7,12.4,"18:02:48",1
"22/12/01","18:20",0.0,7.8,75.2,1017.5,296.7,2.7,4.0,315.4,0.00,3.7,12.6,"18:16:40",1
"22/12/01","18:30",0.0,7.9,75.4,1017.5,312.5,3.2,5.6,326.1,0.00,3.9,12.6,"18:23:12",1
"22/12/01","18:40",0.0,7.7,75.7,1017.3,300.9,3.2,5.2,330.8,0.00,3.7,12.5,"18:36:16",1
"22/12/01","18:50",0.0,7.7,76.0,1017.8,297.4,2.6,4.0,312.7,0.00,3.8,12.6,"18:49:52",1
"22/12/01","19:00",0.0,7.5,76.4,1018.0,305.3,2.8,4.8,342.7,0.00,3.7,12.4,"18:57:52",1
"22/12/01","19:10",0.0,7.6,77.0,1017.8,296.4,2.7,4.5,333.2,0.00,3.9,12.4,"19:07:20",1
"22/12/01","19:20",0.0,7.5,77.4,1018.2,301.9,2.5,3.5,329.8,0.00,3.8,12.3,"19:19:20",1
"22/12/01","20:10",0.0,7.4,77.8,1018.5,323.0,3.4,5.1,307.5,0.00,3.8,12.4,"20:09:56",1
"22/12/01","20:20",0.0,7.4,77.9,1018.5,308.1,3.4,5.4,314.4,0.00,3.8,12.4,"20:13:52",1
"22/12/01","20:30",0.0,7.3,78.2,1018.2,308.3,3.6,6.2,332.6,0.00,3.8,12.3,"20:29:52",1
"22/12/01","20:40",0.0,7.3,78.2,1017.8,312.4,3.9,7.4,332.1,0.00,3.8,12.4,"20:30:16",1
"22/12/01","20:50",0.0,7.2,78.5,1017.8,310.5,3.7,8.1,334.4,0.00,3.8,12.2,"20:49:54",1
"22/12/01","21:00",0.0,7.1,78.8,1018.0,317.0,4.5,6.2,322.7,0.00,3.7,12.4,"20:57:12",1
"22/12/01","21:10",0.0,7.0,79.1,1018.0,314.7,4.1,6.3,343.9,0.00,3.7,12.4,"21:04:08",1
"22/12/01","21:20",0.0,7.0,79.4,1017.5,316.8,4.2,6.3,329.1,0.00,3.7,12.2,"21:10:32",1
"22/12/01","21:30",0.0,6.9,79.7,1017.3,320.0,4.9,8.9,342.8,0.00,3.7,12.3,"21:20:08",1
"22/12/01","21:40",0.0,6.8,79.9,1017.3,307.4,4.2,7.0,336.7,0.00,3.6,12.3,"21:30:32",1
"22/12/01","21:50",0.0,6.8,80.3,1017.1,308.8,4.4,6.7,322.4,0.00,3.7,12.2,"21:49:36",1
"22/12/01","22:00",0.0,6.7,80.6,1017.3,319.8,4.9,8.1,322.9,0.00,3.6,12.2,"21:51:42",1
"22/12/01","22:10",0.0,6.6,81.2,1017.3,322.9,4.6,8.2,320.2,0.00,3.7,12.2,"22:09:30",1
"22/12/01","22:20",0.0,6.6,81.5,1017.1,314.7,4.2,7.1,338.3,0.00,3.7,12.1,"22:10:48",1
"22/12/01","22:30",0.0,6.5,81.6,1017.5,311.6,3.6,5.6,314.7,0.00,3.6,12.0,"22:20:40",1
"22/12/01","22:40",0.0,6.5,81.7,1017.5,307.7,3.9,6.0,331.2,0.00,3.6,11.8,"22:36:22",1
"22/12/01","22:50",0.0,6.4,81.8,1017.3,309.2,3.6,5.8,325.1,0.00,3.6,12.1,"22:41:54",1
"22/12/01","23:00",0.0,6.2,82.2,1017.5,301.7,2.8,4.4,329.2,0.00,3.4,12.0,"22:56:10",1
"22/12/01","23:10",0.0,6.2,82.6,1017.5,295.4,3.0,4.2,297.7,0.00,3.5,11.8,"23:05:02",1
"22/12/01","23:20",0.0,6.1,83.0,1017.3,290.6,3.0,4.1,266.9,0.00,3.5,11.8,"23:10:02",1
"22/12/01","23:30",0.0,6.0,83.2,1017.1,295.3,2.7,4.2,319.5,0.00,3.4,11.6,"23:24:20",1
"22/12/01","23:40",0.0,5.9,83.5,1017.1,292.2,2.8,4.3,276.0,0.00,3.4,11.6,"23:37:20",1
"22/12/01","23:50",0.0,5.9,83.7,1017.1,305.6,3.1,5.5,331.9,0.00,3.4,11.8,"23:45:40",1
"22/12/01","24:00",0.0,5.9,83.9,1017.1,312.7,3.6,5.4,321.4,0.00,3.4,11.7,"23:51:32",1
